Regional Weather Roundup
Issued by NWS Kansas City/Pleasant Hill, MO

Home | Current Version | Previous Version | Graphics & Text | Print | Product List | Glossary Off
Versions: 1 2 3 4 5 6 7 8 9 10 11 12 13 14 15 16 17 18 19 20 21 22 23 24 25 26 27 28 29 30 31 32 33 34 35 36 37 38 39 40 41 42 43 44 45 46 47 48 49 50

000
ASUS43 KEAX 270410
RWREAX

WEATHER ROUNDUP FOR EASTERN KANSAS AND NORTHWEST MISSOURI
NATIONAL WEATHER SERVICE KANSAS CITY/PLEASANT HILL MO
1100 PM CDT WED AUG 26 2015

KSZ040-057-103>105-MOZ028-029-037-043-270500-
...KANSAS CITY METROPOLITAN AREA...

CITY           SKY/WX    TMP DP  RH WIND       PRES   REMARKS
K.C. INTL      MOCLDY    69  60  73 SE12      30.12F
K.C. DOWNTOWN  CLEAR     72  61  68 E6        30.12S
LEES SUMMIT    CLEAR     67  60  78 E6        30.14S
OLATHE - IXD   CLEAR     69  62  78 E7        30.13F
OLATHE - OJC   CLEAR     68  61  78 E7        30.12F
LAWRENCE       CLEAR     65  61  87 CALM      30.11F

$$

MOZ001>008-011>017-020>025-030>033-038>040-044>046-053-054-270500-
...NORTHERN AND CENTRAL MISSOURI...

CITY           SKY/WX    TMP DP  RH WIND       PRES   REMARKS
ST. JOSEPH     CLEAR     69  61  75 SE6       30.12S
MOSBY          CLEAR     68  59  73 CALM      30.13S
WARRENSBURG    CLEAR     64  59  82 NE3       30.13F
WHITEMAN AFB   PTCLDY    64  58  82 E3        30.13S
CLINTON        CLEAR     66  63  88 CALM      30.14F
SEDALIA        CLEAR     64  55  72 SE6       30.15F
WARSAW         NOT AVBL
CHILLICOTHE      N/A     61  57  87 CALM      30.16S
KIRKSVILLE     PTCLDY    59  55  87 CALM      30.16F

$$

MOZ041-047>049-056>058-063>065-088>090-097-270500-
...EASTERN AND SOUTHERN MISSOURI...

CITY           SKY/WX    TMP DP  RH WIND       PRES   REMARKS
ST. LOUIS INTL CLEAR     69  55  60 NE6       30.15R
SPIRIT OF STL  CLEAR     60  59  96 CALM      30.14R
COLUMBIA       PTCLDY    67  58  72 NE3       30.15F
JEFFERSON CITY CLEAR     61  57  87 CALM      30.14S
ROLLA          CLEAR     57  53  86 CALM      30.15R
OSAGE BEACH    CLEAR     61  54  77 CALM      30.15S
SPRINGFIELD    CLEAR     67  61  81 CALM      30.14R
BRANSON        CLOUDY    68  63  83 CALM      30.15R
JOPLIN         CLEAR     67  63  87 E5        30.12S
WEST PLAINS    CLEAR     58  55  90 CALM      30.16R

$$

IAZ060-094-KSZ022-034>040-054-083-096-NEZ052-066-093-270500-
...KANSAS...SOUTHEAST NEBRASKA AND IOWA...

CITY           SKY/WX    TMP DP  RH WIND       PRES   REMARKS
TOPEKA         CLEAR     68  63  84 E6        30.10S
MANHATTAN      CLEAR     74  62  66 E3        30.07S
EMPORIA        CLEAR     71  63  75 SE8       30.09S
CHANUTE        CLEAR     70  63  78 SE5       30.11R
WICHITA        PTCLDY    78  72  81 SE9       30.06R
OMAHA          PTCLDY    69  61  75 SE9       30.09S
LINCOLN        PTCLDY    71  63  75 SE9       30.08S
FALLS CITY     CLEAR     67  62  84 SE9       30.09S
LAMONI         CLEAR     67  56  67 SE5       30.14F
DES MOINES     PTCLDY    68  52  56 SE7       30.14S

$$



USA.gov is the U.S. government's official web portal to all federal, state and local government web resources and services.